SBPSSBCB

Guest
Details From SBPS - Porto Seguro
To SBCB - CABO FRIO
Flight Number -
Tags generated
Created
Modified
Stats Distance 429 nm / 795 km
Max Altitude 34,000 ft / 10,363 m
Waypoints 6
Social Downloads 0
Likes 0
Share VATSIM

Download

Looking for another format? Having issues loading an existing format? Contact us
Advertisement - Login to hide

Notes

Basic altitude profile: - Ascent Rate: 1100ft/min - Ascent Speed: 195kts - Cruise Altitude: 15000ft - Cruise Speed: 195kts - Descent Rate: 1100ft/min - Descent Speed: 195kts Options: - Use NATs: yes - Use PACOTS: yes - Use low airways: yes - Use high airways: yes

Route

SBPS CVL UW50 CPO SBCB

ID Type Via Altitude Latitude Longitude Leg Dist Tot Dist Heading (true) Name
O SBPS APT - 0 ft / 0 m -16.43863˚ -39.08092˚ - 0 nm - Porto Seguro
CVL NDB - 26,300 ft / 8,016 m -17.65417˚ -39.24983˚ 73 nm 73 nm 188° / 188° CARAVELAS NDB
EUDES FIX UW50 (AWY-HI) 34,000 ft / 10,363 m -18.26900˚ -39.49767˚ 39 nm 113 nm 201° / 201° -
VTR VOR UW50 (AWY-HI) 34,000 ft / 10,363 m -20.24967˚ -40.28300˚ 127 nm 240 nm 200° / 201° VITORIA VOR-DME
CPO NDB UW50 (AWY-HI) 24,500 ft / 7,468 m -21.69733˚ -41.30667˚ 104 nm 344 nm 213° / 214° CAMPOS NDB
O SBCB APT - 0 ft / 0 m -22.92168˚ -42.07427˚ 85 nm 429 nm 210° / 210° CABO FRIO

Altitude Profile

Advertisement - Login to hide

Weather


0- 5 10 15 20 25 30 35+ Temperature / ° C

Clouds and Precipitation
Forecast for 2017-12-13 18:00 UTC. Updated 9 minutes ago

Ground ~20,000 ft ~40,000 ft Winds

SBPS

Details ICAO SBPS (BPS)
Name Porto Seguro
Region Brazil
Timezone America/Bahia (UTC-3.0)
Stats Elevation 168 ft / 51 m (AMSL)
Location -16.438625° -39.080917°
Runways 1
Magnetic Variation 23.868° W

METAR

SBPS 131500Z 06008KT 3000 -RA OVC004 24/24 Q1016

Decode

TAF

TAF SBPS 131000Z 1312/1412 07007KT 7000 BKN020 TX29/1315Z TN24/1407Z BECMG 1317/1318 03008KT SCT020 TEMPO 1319/1322 5000 SHRA BKN020 FEW025TCU BECMG 1323/1401 32004KT TEMPO 1407/1410 5000 SHRA BKN020 FEW025TCU RMK PEA

Decode

Departure Runways

ID Width Length Bearing (true) Bearing (mag) Surface Threshold Offset Overrun Length
10 148 ft / 45 m 6,532 ft / 1,991 m 74.06° 97.93° Asphalt 0 ft / 0 m 195 ft / 59 m
28 148 ft / 45 m 6,532 ft / 1,991 m 254.06° 277.93° Asphalt 0 ft / 0 m 0 ft / 0 m

SBCB

Details ICAO SBCB (CFB)
Name CABO FRIO
Region Brazil
Timezone America/Sao_Paulo (UTC-2.0)
Stats Elevation 14 ft / 4 m (AMSL)
Location -22.921681° -42.074268°
Runways 1
Magnetic Variation 23.134° W

METAR

SBCB 131500Z 12008KT 9999 SCT025 30/19 Q1019

Decode

TAF

Not found

Destination Runways

ID Width Length Bearing (true) Bearing (mag) Surface Threshold Offset Overrun Length
10 98 ft / 30 m 5,574 ft / 1,699 m 75.53° 98.66° Asphalt 0 ft / 0 m 200 ft / 61 m
28 98 ft / 30 m 5,574 ft / 1,699 m 255.53° 278.66° Asphalt 0 ft / 0 m 200 ft / 61 m

Popular Alternatives